FW1654 Weather Reports


Display with metric or nautical units.
time (UTC)temp
F
wind
direction
speed
MPH
gust
MPH
rain 1hr
in
rain 24hr
in
rain mn
in
humidity
%
barometer
mb
20260904102025 73 13 2.0 4.0 0.00 0.00 0.00 98 1020.7
20260904101518 73 26 2.0 4.0 0.00 0.00 0.00 98 1020.7
20260904101016 73 16 2.0 4.0 0.00 0.00 0.00 97 1020.6
20260904100519 73 19 2.0 4.0 0.00 0.00 0.00 97 1020.6
20260904100157 73 13 2.0 4.0 0.00 0.00 0.00 98 1020.5
20260904100007 73 23 2.0 4.0 0.00 0.00 0.00 98 1020.6
20260904095040 73 13 2.0 4.0 0.00 0.00 0.00 98 1020.5
20260904094657 73 7 2.0 4.0 0.00 0.00 0.00 98 1020.5
20260904093952 73 7 2.0 4.0 0.00 0.00 0.00 98 1020.3
20260904093425 73 7 2.0 4.0 0.00 0.00 0.00 98 1020.3
20260904093004 73 3 2.0 4.0 0.00 0.00 0.00 98 1020.3
20260904092530 73 18 2.0 2.0 0.00 0.00 0.00 97 1020.2
20260904092448 73 5 2.0 4.0 0.00 0.00 0.00 98 1020.2
20260904092209 73 18 2.0 2.0 0.00 0.00 0.00 97 1020.2
20260904092031 73 1 0.0 4.0 0.00 0.00 0.00 98 1020.2
20260904091708 73 17 0.0 3.0 0.00 0.00 0.00 97 1020.2
20260904090513 73 17 2.0 2.0 0.00 0.00 0.00 97 1020.2
20260904090027 73 17 2.0 3.0 0.00 0.00 0.00 97 1020.2
20260904085408 73 18 2.0 3.0 0.00 0.00 0.00 97 1020.1
20260904084908 73 17 2.0 5.0 0.00 0.00 0.00 97 1020.1
20260904084631 73 14 2.0 5.0 0.00 0.00 0.00 97 1020.1
20260904083912 74 16 2.0 4.0 0.00 0.00 0.00 97 1019.9
20260904083407 74 15 2.0 4.0 0.00 0.00 0.00 97 1019.9
20260904082904 74 3 2.0 4.0 0.00 0.00 0.00 97 1019.9
20260904082855 74 5 2.0 4.0 0.00 0.00 0.00 97 1020.0
20260904081904 74 0 2.0 4.0 0.00 0.00 0.00 97 1020.0
20260904081844 74 0 2.0 4.0 0.00 0.00 0.00 97 1020.0
20260904080857 74 10 3.0 5.0 0.00 0.00 0.00 97 1020.1
20260904080356 74 350 3.0 5.0 0.00 0.00 0.00 97 1020.1
20260904075856 74 2 2.0 5.0 0.00 0.00 0.00 97 1020.1
20260904075354 74 13 3.0 2.0 0.00 0.00 0.00 96 1020.1
20260904074852 74 13 3.0 4.0 0.00 0.00 0.00 96 1020.1
20260904074610 74 13 3.0 4.0 0.00 0.00 0.00 96 1020.1
20260904073849 74 2 3.0 5.0 0.00 0.00 0.00 96 1020.0
20260904073344 74 13 3.0 5.0 0.00 0.00 0.00 96 1020.0
20260904072841 74 349 3.0 5.0 0.00 0.00 0.00 96 1020.0
20260904072341 74 12 3.0 5.0 0.00 0.00 0.00 96 1020.1
20260904071841 74 2 2.0 5.0 0.00 0.00 0.00 96 1020.1
20260904071337 74 9 2.0 4.0 0.00 0.00 0.00 96 1020.1
20260904070836 75 8 2.0 4.0 0.00 0.00 0.00 96 1020.2
20260904070337 75 4 2.0 4.0 0.00 0.00 0.00 96 1020.2
20260904065833 75 7 0.0 4.0 0.00 0.00 0.00 96 1020.2
20260904065558 75 24 0.0 3.0 0.00 0.00 0.00 96 1020.4
20260904065053 75 26 2.0 3.0 0.00 0.00 0.00 95 1020.4
20260904064334 75 27 2.0 3.0 0.00 0.00 0.00 95 1020.4
20260904063837 75 27 2.0 3.0 0.00 0.00 0.00 95 1020.6
20260904063331 75 27 2.0 3.0 0.00 0.00 0.00 95 1020.6
20260904063050 75 27 2.0 3.0 0.00 0.00 0.00 95 1020.6
20260904062326 76 13 2.0 3.0 0.00 0.00 0.00 95 1020.9
20260904061816 76 13 2.0 4.0 0.00 0.00 0.00 95 1020.9
20260904061543 76 13 2.0 4.0 0.00 0.00 0.00 95 1020.9
20260904060746 76 13 2.0 3.0 0.00 0.00 0.00 95 1020.9
20260904060241 76 13 2.0 3.0 0.00 0.00 0.00 95 1020.9
20260904055726 76 13 2.0 4.0 0.00 0.00 0.00 94 1021.0
20260904055216 76 13 2.0 4.0 0.00 0.00 0.00 94 1021.0
20260904054939 76 28 2.0 4.0 0.00 0.00 0.00 94 1021.0
20260904054136 76 28 2.0 4.0 0.00 0.00 0.00 94 1021.1
20260904053556 76 28 2.0 4.0 0.00 0.00 0.00 94 1021.1
20260904053027 76 3 0.0 4.0 0.00 0.00 0.00 94 1021.1
20260904052527 76 354 0.0 4.0 0.00 0.00 0.00 93 1021.3
20260904052006 76 354 1.0 2.0 0.00 0.00 0.00 93 1021.3
20260904051438 77 354 1.0 2.0 0.00 0.00 0.00 93 1021.3
20260904050938 77 354 1.0 0.0 0.00 0.00 0.00 91 1021.4
20260904050645 77 354 1.0 0.0 0.00 0.00 0.00 91 1021.4
20260904045916 77 354 1.0 1.0 0.00 0.00 0.00 91 1021.4
20260904045821 77 354 1.0 3.0 0.00 0.00 0.00 91 1021.5
20260904044824 77 354 3.0 5.0 0.00 0.00 0.00 91 1021.5
20260904044321 77 354 3.0 5.0 0.00 0.00 0.00 91 1021.5
20260904044043 77 13 2.0 5.0 0.00 0.00 0.00 91 1021.3
20260904043321 78 7 2.0 4.0 0.00 0.00 0.00 90 1021.3
20260904042824 78 14 2.0 4.0 0.00 0.00 0.00 90 1021.3
20260904042241 78 4 2.0 4.0 0.00 0.00 0.00 90 1021.4
20260904041742 78 5 2.0 4.0 0.00 0.00 0.00 90 1021.4
20260904041224 78 9 2.0 3.0 0.00 0.00 0.00 90 1021.4
20260904040718 78 9 2.0 3.0 0.00 0.00 0.00 89 1021.4
20260904040435 78 9 2.0 4.0 0.00 0.00 0.00 89 1021.4
20260904035718 78 12 1.0 4.0 0.00 0.00 0.00 89 1021.4
20260904035219 78 355 1.0 4.0 0.00 0.00 0.00 89 1021.4
20260904034717 78 7 1.0 3.0 0.00 0.00 0.00 87 1021.4
20260904034131 78 7 1.0 3.0 0.00 0.00 0.00 87 1021.3
20260904033632 79 7 3.0 4.0 0.00 0.00 0.00 87 1021.3
20260904033131 79 7 3.0 5.0 0.00 0.00 0.00 86 1021.3
20260904032853 79 6 3.0 5.0 0.00 0.00 0.00 86 1021.4
20260904032131 79 12 4.0 6.0 0.00 0.00 0.00 86 1021.4
20260904031631 79 10 4.0 6.0 0.00 0.00 0.00 85 1021.4
20260904031356 79 356 4.0 5.0 0.00 0.00 0.00 85 1021.5
20260904030855 79 14 3.0 5.0 0.00 0.00 0.00 85 1021.5
20260904030129 80 358 3.0 5.0 0.00 0.00 0.00 85 1021.5
20260904025628 80 5 2.0 4.0 0.00 0.00 0.00 84 1021.4
20260904025128 80 11 2.0 3.0 0.00 0.00 0.00 84 1021.4
20260904024629 80 11 2.0 4.0 0.00 0.00 0.00 84 1021.4
20260904024129 80 11 2.0 4.0 0.00 0.00 0.00 83 1021.4
20260904023900 80 57 3.0 4.0 0.00 0.00 0.00 82 1021.4
20260904023318 81 341 2.0 4.0 0.00 0.00 0.00 81 1021.4
20260904022554 81 339 2.0 4.0 0.00 0.00 0.00 80 1021.4
20260904022318 81 352 2.0 4.0 0.00 0.00 0.00 79 1021.4
20260904021553 82 353 2.0 3.0 0.00 0.00 0.00 79 1021.4
20260904021053 82 353 0.0 3.0 0.00 0.00 0.00 79 1021.3
20260904020553 82 353 0.0 2.0 0.00 0.00 0.00 79 1021.3
20260904020051 82 353 1.0 2.0 0.00 0.00 0.00 78 1021.3
20260904015552 82 353 1.0 2.0 0.00 0.00 0.00 79 1021.1
20260904015031 82 353 0.0 2.0 0.00 0.00 0.00 77 1021.1
20260904014531 82 353 0.0 2.0 0.00 0.00 0.00 76 1021.1
20260904014028 83 353 0.0 0.0 0.00 0.00 0.00 76 1020.9
20260904013516 83 353 0.0 1.0 0.00 0.00 0.00 76 1020.9
20260904013014 83 353 2.0 2.0 0.00 0.00 0.00 75 1020.9
20260904012452 83 353 2.0 3.0 0.00 0.00 0.00 73 1020.7
20260904011952 84 353 2.0 4.0 0.00 0.00 0.00 74 1020.7
20260904011452 84 353 2.0 4.0 0.00 0.00 0.00 73 1020.7
20260904010952 84 353 2.0 4.0 0.00 0.00 0.00 73 1020.4
20260904010451 84 353 2.0 3.0 0.00 0.00 0.00 72 1020.4
20260904005942 84 353 2.0 3.0 0.00 0.00 0.00 73 1020.4
20260904005438 85 353 2.0 4.0 0.00 0.00 0.00 72 1020.2
20260904004931 85 353 0.0 4.0 0.00 0.00 0.00 71 1020.2
20260904004431 85 353 0.0 3.0 0.00 0.00 0.00 69 1020.2
20260904003934 86 353 0.0 0.0 0.00 0.00 0.00 69 1020.1
20260904003430 86 353 0.0 2.0 0.00 0.00 0.00 68 1020.1
20260904002934 87 353 2.0 2.0 0.00 0.00 0.00 68 1020.1
20260904002420 88 353 2.0 2.0 0.00 0.00 0.00 64 1019.8
20260904001903 88 353 2.0 2.0 0.00 0.00 0.00 64 1019.8
20260904001358 88 353 2.0 3.0 0.00 0.00 0.00 64 1019.8
20260904000854 88 353 2.0 3.0 0.00 0.00 0.00 63 1019.7
20260904000348 89 353 2.0 3.0 0.00 0.00 0.00 62 1019.7
20260903235838 89 353 2.0 3.0 0.00 0.00 0.00 61 1019.7
20260903235336 90 353 2.0 4.0 0.00 0.00 0.00 59 1019.7
20260903235059 91 353 2.0 4.0 0.00 0.00 0.00 58 1019.7
20260903234336 92 351 2.0 3.0 0.00 0.00 0.00 57 1019.7
20260903233836 93 351 1.0 3.0 0.00 0.00 0.00 55 1019.5
20260903233312 93 310 1.0 2.0 0.00 0.00 0.00 54 1019.5
20260903232807 94 310 2.0 3.0 0.00 0.00 0.00 54 1019.5
20260903232306 94 310 2.0 3.0 0.00 0.00 0.00 53 1019.3
20260903231804 95 320 1.0 3.0 0.00 0.00 0.00 52 1019.3
20260903231303 95 2 1.0 3.0 0.00 0.00 0.00 51 1019.3
20260903230801 96 315 2.0 3.0 0.00 0.00 0.00 51 1019.4
20260903230258 96 323 2.0 3.0 0.00 0.00 0.00 50 1019.4
20260903230018 96 322 2.0 4.0 0.00 0.00 0.00 51 1019.4
20260903225256 96 318 2.0 4.0 0.00 0.00 0.00 50 1019.5
20260903224756 96 7 2.0 4.0 0.00 0.00 0.00 49 1019.5
20260903224259 96 352 2.0 4.0 0.00 0.00 0.00 51 1019.5
20260903223756 96 309 2.0 4.0 0.00 0.00 0.00 48 1019.3
20260903223247 96 359 2.0 6.0 0.00 0.00 0.00 48 1019.3
20260903222744 97 4 2.0 6.0 0.00 0.00 0.00 47 1019.3
20260903222241 97 214 2.0 5.0 0.00 0.00 0.00 46 1019.3
20260903221741 98 214 2.0 5.0 0.00 0.00 0.00 45 1019.3
20260903221241 98 256 2.0 4.0 0.00 0.00 0.00 46 1019.3
20260903220739 98 280 2.0 3.0 0.00 0.00 0.00 45 1019.4
20260903220236 98 327 2.0 4.0 0.00 0.00 0.00 47 1019.4
20260903215953 98 327 2.0 4.0 0.00 0.00 0.00 44 1019.4
20260903215452 98 260 2.0 4.0 0.00 0.00 0.00 47 1019.5
20260903214956 98 218 2.0 4.0 0.00 0.00 0.00 45 1019.5
20260903214234 98 292 2.0 4.0 0.00 0.00 0.00 47 1019.5
20260903213733 98 296 2.0 3.0 0.00 0.00 0.00 47 1019.5
20260903213233 98 333 2.0 5.0 0.00 0.00 0.00 47 1019.5
20260903212952 98 218 2.0 5.0 0.00 0.00 0.00 44 1019.5
20260903212231 98 248 2.0 4.0 0.00 0.00 0.00 45 1019.6
20260903211730 98 305 2.0 5.0 0.00 0.00 0.00 44 1019.6
20260903211232 99 15 2.0 5.0 0.00 0.00 0.00 44 1019.8
20260903210952 98 192 2.0 4.0 0.00 0.00 0.00 45 1019.8
20260903210441 98 129 2.0 4.0 0.00 0.00 0.00 46 1019.8
20260903205715 97 200 2.0 5.0 0.00 0.00 0.00 46 1020.0
20260903205436 97 207 2.0 5.0 0.00 0.00 0.00 47 1020.0
20260903204716 97 63 2.0 6.0 0.00 0.00 0.00 46 1020.0
20260903204218 97 186 2.0 6.0 0.00 0.00 0.00 46 1020.1
20260903203716 97 218 2.0 3.0 0.00 0.00 0.00 48 1020.1
20260903203217 97 179 3.0 3.0 0.00 0.00 0.00 48 1020.1
20260903202656 97 179 3.0 4.0 0.00 0.00 0.00 48 1020.2
20260903202153 97 179 3.0 6.0 0.00 0.00 0.00 48 1020.2
20260903201639 97 234 3.0 6.0 0.00 0.00 0.00 49 1020.2
20260903201139 96 186 3.0 6.0 0.00 0.00 0.00 48 1020.3
20260903200638 96 198 2.0 5.0 0.00 0.00 0.00 49 1020.3
20260903200139 96 197 2.0 5.0 0.00 0.00 0.00 48 1020.3
20260903195903 96 76 2.0 5.0 0.00 0.00 0.00 49 1020.5
20260903195142 96 6 2.0 5.0 0.00 0.00 0.00 47 1020.5
20260903194637 96 9 2.0 5.0 0.00 0.00 0.00 48 1020.5
20260903194620 96 179 2.0 5.0 0.00 0.00 0.00 49 1020.6
20260903193857 96 225 2.0 5.0 0.00 0.00 0.00 51 1020.6
20260903193136 95 177 2.0 5.0 0.00 0.00 0.00 50 1020.6
20260903192636 95 340 2.0 5.0 0.00 0.00 0.00 48 1020.9
20260903192135 96 108 2.0 4.0 0.00 0.00 0.00 48 1020.9
20260903191630 96 194 2.0 5.0 0.00 0.00 0.00 48 1020.9
20260903191131 96 136 2.0 5.0 0.00 0.00 0.00 49 1021.0
20260903190629 95 254 3.0 5.0 0.00 0.00 0.00 51 1021.0
20260903190128 95 269 3.0 5.0 0.00 0.00 0.00 48 1021.0
20260903185628 95 201 3.0 7.0 0.00 0.00 0.00 49 1021.1
20260903185347 95 236 3.0 7.0 0.00 0.00 0.00 49 1021.1
20260903184619 95 208 3.0 7.0 0.00 0.00 0.00 51 1021.1
20260903184112 95 205 2.0 7.0 0.00 0.00 0.00 50 1021.4
20260903183613 94 213 2.0 7.0 0.00 0.00 0.00 52 1021.4
20260903183117 94 256 2.0 5.0 0.00 0.00 0.00 54 1021.4
20260903182837 94 176 2.0 5.0 0.00 0.00 0.00 53 1021.6
20260903182110 93 194 2.0 4.0 0.00 0.00 0.00 55 1021.6
20260903181608 92 197 2.0 5.0 0.00 0.00 0.00 55 1021.6
20260903181106 92 199 2.0 5.0 0.00 0.00 0.00 53 1021.7
20260903180605 92 253 2.0 4.0 0.00 0.00 0.00 55 1021.7
20260903180108 91 73 2.0 4.0 0.00 0.00 0.00 55 1021.7
20260903175606 91 10 2.0 4.0 0.00 0.00 0.00 55 1021.9
20260903175105 91 9 1.0 4.0 0.00 0.00 0.00 55 1021.9
20260903174606 91 9 1.0 4.0 0.00 0.00 0.00 54 1021.9
20260903174328 91 161 2.0 3.0 0.00 0.00 0.00 56 1022.1
20260903173606 91 72 2.0 5.0 0.00 0.00 0.00 55 1022.1
20260903173102 91 76 2.0 5.0 0.00 0.00 0.00 55 1022.1
20260903172600 91 134 2.0 5.0 0.00 0.00 0.00 57 1022.2
20260903172100 91 73 2.0 5.0 0.00 0.00 0.00 56 1022.2
20260903171556 90 181 2.0 5.0 0.00 0.00 0.00 59 1022.2
20260903171318 90 57 3.0 5.0 0.00 0.00 0.00 59 1022.4
20260903170546 89 121 3.0 7.0 0.00 0.00 0.00 60 1022.4
20260903170046 89 71 2.0 7.0 0.00 0.00 0.00 60 1022.4
20260903165545 89 71 2.0 4.0 0.00 0.00 0.00 60 1022.5
20260903165046 89 32 2.0 4.0 0.00 0.00 0.00 62 1022.5
20260903164546 89 72 2.0 4.0 0.00 0.00 0.00 62 1022.5
20260903164040 89 1 2.0 4.0 0.00 0.00 0.00 61 1022.7
20260903163540 88 53 2.0 4.0 0.00 0.00 0.00 65 1022.7
20260903163526 88 197 2.0 4.0 0.00 0.00 0.00 64 1022.7
20260903162540 88 218 2.0 4.0 0.00 0.00 0.00 66 1022.8
20260903162041 87 70 2.0 4.0 0.00 0.00 0.00 66 1022.8
20260903161541 87 56 2.0 4.0 0.00 0.00 0.00 67 1022.8
20260903161040 87 62 2.0 5.0 0.00 0.00 0.00 66 1022.9
20260903160800 86 72 2.0 5.0 0.00 0.00 0.00 65 1022.9
20260903160031 86 187 2.0 3.0 0.00 0.00 0.00 69 1022.9
20260903160006 85 72 2.0 2.0 0.00 0.00 0.00 71 1022.9
20260903154952 85 72 2.0 2.0 0.00 0.00 0.00 71 1022.9
20260903154415 85 72 2.0 4.0 0.00 0.00 0.00 71 1022.9
20260903153843 85 64 2.0 4.0 0.00 0.00 0.00 70 1023.0
20260903153344 85 56 2.0 4.0 0.00 0.00 0.00 70 1023.0
20260903152834 84 78 2.0 2.0 0.00 0.00 0.00 74 1023.0
20260903152605 84 78 2.0 3.0 0.00 0.00 0.00 74 1023.1
20260903152038 84 78 2.0 4.0 0.00 0.00 0.00 74 1023.1
20260903151310 84 172 2.0 4.0 0.00 0.00 0.00 73 1023.1
20260903150805 83 64 2.0 4.0 0.00 0.00 0.00 74 1023.1
20260903150305 83 113 2.0 4.0 0.00 0.00 0.00 75 1023.1
20260903145805 82 116 2.0 4.0 0.00 0.00 0.00 77 1023.1
20260903145308 82 87 2.0 4.0 0.00 0.00 0.00 77 1023.0
20260903144808 82 68 2.0 4.0 0.00 0.00 0.00 78 1023.0
20260903144305 81 84 2.0 5.0 0.00 0.00 0.00 78 1023.0
20260903144021 81 72 2.0 5.0 0.00 0.00 0.00 79 1023.1
20260903143520 81 60 2.0 5.0 0.00 0.00 0.00 81 1023.1
20260903143019 80 356 2.0 5.0 0.00 0.00 0.00 81 1023.1
20260903142248 80 69 2.0 5.0 0.00 0.00 0.00 82 1023.0
20260903142238 80 72 2.0 5.0 0.00 0.00 0.00 82 1023.0
20260903141728 79 84 2.0 4.0 0.00 0.00 0.00 84 1023.0
20260903140745 79 63 2.0 4.0 0.00 0.00 0.00 85 1023.1
20260903140245 79 71 2.0 4.0 0.00 0.00 0.00 86 1023.1
20260903135748 78 70 2.0 4.0 0.00 0.00 0.00 87 1023.1
20260903135246 78 71 2.0 4.0 0.00 0.00 0.00 87 1023.1
20260903134737 78 71 2.0 4.0 0.00 0.00 0.00 88 1023.1
20260903134238 76 48 3.0 3.0 0.00 0.00 0.00 89 1023.1
20260903133934 76 48 3.0 3.0 0.00 0.00 0.00 89 1023.1
20260903133213 76 48 3.0 4.0 0.00 0.00 0.00 89 1023.1
20260903132914 76 16 3.0 4.0 0.00 0.00 0.00 90 1023.4
20260903132145 76 65 3.0 4.0 0.00 0.00 0.00 90 1023.4
20260903131911 76 27 2.0 4.0 0.00 0.00 0.00 91 1023.4
20260903131145 75 71 2.0 4.0 0.00 0.00 0.00 92 1023.4
20260903130646 75 69 2.0 4.0 0.00 0.00 0.00 93 1023.4
20260903130146 74 0 2.0 4.0 0.00 0.00 0.00 93 1023.4
20260903125646 74 48 2.0 4.0 0.00 0.00 0.00 93 1023.4
20260903125145 74 63 2.0 4.0 0.00 0.00 0.00 94 1023.4
20260903124645 74 17 2.0 4.0 0.00 0.00 0.00 94 1023.4
20260903124146 74 7 2.0 4.0 0.00 0.00 0.00 95 1023.4
20260903124127 73 60 2.0 5.0 0.00 0.00 0.00 96 1023.4
20260903123142 73 65 2.0 5.0 0.00 0.00 0.00 96 1023.4
20260903122643 73 39 2.0 4.0 0.00 0.00 0.00 97 1023.4
20260903122140 73 62 2.0 4.0 0.00 0.00 0.00 97 1023.4
20260903121640 72 64 2.0 4.0 0.00 0.00 0.00 98 1023.4
20260903121138 72 58 2.0 4.0 0.00 0.00 0.00 98 1023.1
20260903120638 72 59 2.0 4.0 0.00 0.00 0.00 98 1023.1
20260903120134 72 4 2.0 4.0 0.00 0.00 0.00 99 1023.1
20260903115625 71 2 3.0 5.0 0.00 0.00 0.00 98 1023.0
20260903115120 71 7 3.0 5.0 0.00 0.00 0.00 98 1023.0
20260903114620 71 13 3.0 5.0 0.00 0.00 0.00 98 1023.0
20260903114117 71 354 4.0 6.0 0.00 0.00 0.00 98 1022.9
20260903113618 71 11 4.0 6.0 0.00 0.00 0.00 98 1022.9
20260903113118 71 3 4.0 5.0 0.00 0.00 0.00 98 1022.9
20260903112618 71 359 3.0 5.0 0.00 0.00 0.00 98 1022.6
20260903112118 71 10 3.0 5.0 0.00 0.00 0.00 98 1022.6
20260903111615 71 12 2.0 5.0 0.00 0.00 0.00 98 1022.6
20260903111334 71 15 3.0 4.0 0.00 0.00 0.00 98 1022.4
20260903110615 71 10 3.0 5.0 0.00 0.00 0.00 98 1022.4
20260903110115 71 1 2.0 5.0 0.00 0.00 0.00 97 1022.4
20260903105613 71 6 2.0 4.0 0.00 0.00 0.00 97 1022.3
20260903105313 72 18 3.0 4.0 0.00 0.00 0.00 97 1022.3
20260903105154 72 21 3.0 4.0 0.00 0.00 0.00 97 1022.3
20260903104112 72 2 3.0 5.0 0.00 0.00 0.00 96 1022.3
20260903103610 72 19 3.0 5.0 0.00 0.00 0.00 96 1022.3
20260903103336 72 22 2.0 4.0 0.00 0.00 0.00 96 1022.3
20260903102555 72 9 2.0 4.0 0.00 0.00 0.00 96 1022.2